TimeEST,TemperatureF,Dew PointF,Humidity,Sea Level PressureIn,VisibilityMPH,Wind Direction,Wind SpeedMPH,Gust SpeedMPH,PrecipitationIn,Events,Conditions,WindDirDegrees,DateUTC
12:50 AM,55.4,55.4,100,30.08,2.0,West,6.9,-,N/A,,Overcast,260,2012-01-10 05:50:00
12:51 AM,55.9,55.9,100,30.07,2.0,West,6.9,-,N/A,,Overcast,260,2012-01-10 05:51:00
12:54 AM,55.4,55.4,100,30.08,1.5,West,6.9,-,N/A,,Overcast,260,2012-01-10 05:54:00
1:00 AM,55.4,55.4,100,30.08,0.8,West,8.1,-,N/A,,Overcast,260,2012-01-10 06:00:00
1:53 AM,55.9,55.9,100,30.07,0.8,WSW,5.8,-,N/A,,Mist,240,2012-01-10 06:53:00
2:00 AM,55.4,55.4,100,30.09,1.2,WSW,6.9,-,N/A,,Overcast,250,2012-01-10 07:00:00
2:11 AM,55.4,55.4,100,30.09,0.8,West,5.8,-,N/A,,Mist,260,2012-01-10 07:11:00
2:42 AM,55.4,55.4,100,30.09,1.2,WSW,8.1,-,0.00,Rain,Light Rain,240,2012-01-10 07:42:00
2:46 AM,55.4,55.4,100,30.08,2.0,WSW,8.1,-,0.01,Rain,Light Rain,240,2012-01-10 07:46:00
2:49 AM,55.4,55.4,100,30.08,3.0,SW,8.1,-,0.01,Rain,Light Rain,230,2012-01-10 07:49:00
2:53 AM,55.9,55.9,100,30.06,4.0,SW,6.9,-,0.01,Rain,Light Rain,230,2012-01-10 07:53:00
3:53 AM,55.9,55.9,100,30.06,4.0,West,8.1,-,0.00,,Overcast,260,2012-01-10 08:53:00
4:44 AM,55.4,55.4,100,30.07,4.0,West,5.8,-,0.01,Rain,Light Rain,260,2012-01-10 09:44:00
4:53 AM,55.9,55.9,100,30.05,4.0,West,6.9,-,0.01,Rain,Light Rain,260,2012-01-10 09:53:00
5:53 AM,55.9,55.9,100,30.04,5.0,West,5.8,-,0.01,Rain,Light Rain,260,2012-01-10 10:53:00
6:45 AM,55.4,55.4,100,30.06,5.0,WSW,4.6,-,0.00,,Overcast,240,2012-01-10 11:45:00
6:53 AM,55.9,55.0,97,30.05,5.0,WSW,6.9,-,0.00,,Overcast,250,2012-01-10 11:53:00
7:20 AM,55.4,55.4,100,30.07,2.5,West,4.6,-,N/A,,Overcast,260,2012-01-10 12:20:00
7:24 AM,55.4,55.4,100,30.07,1.8,West,5.8,-,N/A,,Overcast,280,2012-01-10 12:24:00
7:29 AM,55.4,55.4,100,30.06,1.0,West,4.6,-,N/A,,Overcast,280,2012-01-10 12:29:00
7:40 AM,55.4,55.4,100,30.06,0.5,WNW,5.8,-,N/A,Fog,Fog,300,2012-01-10 12:40:00
7:53 AM,55.0,55.0,100,30.04,0.5,West,4.6,-,N/A,Fog,Fog,280,2012-01-10 12:53:00
8:40 AM,55.4,55.4,100,30.07,1.2,West,4.6,-,N/A,,Overcast,280,2012-01-10 13:40:00
8:43 AM,55.4,55.4,100,30.07,2.0,West,5.8,-,N/A,,Overcast,280,2012-01-10 13:43:00
8:53 AM,55.9,55.9,100,30.05,2.5,WNW,4.6,-,N/A,,Overcast,290,2012-01-10 13:53:00
9:00 AM,55.4,55.4,100,30.08,1.8,West,4.6,-,N/A,,Overcast,280,2012-01-10 14:00:00
9:14 AM,55.4,55.4,100,30.08,1.2,West,4.6,-,N/A,,Overcast,280,2012-01-10 14:14:00
9:37 AM,55.4,55.4,100,30.08,2.0,Calm,Calm,-,N/A,,Overcast,0,2012-01-10 14:37:00
9:46 AM,55.4,55.4,100,30.09,2.5,WNW,3.5,-,N/A,,Overcast,300,2012-01-10 14:46:00
9:53 AM,55.9,55.9,100,30.08,2.5,WNW,4.6,-,N/A,,Overcast,290,2012-01-10 14:53:00
10:04 AM,55.4,55.4,100,30.09,3.0,WNW,3.5,-,N/A,,Overcast,300,2012-01-10 15:04:00
10:12 AM,55.4,55.4,100,30.09,2.0,North,3.5,-,N/A,,Overcast,360,2012-01-10 15:12:00
10:22 AM,55.4,55.4,100,30.10,3.0,NNW,3.5,-,N/A,,Overcast,330,2012-01-10 15:22:00
10:53 AM,57.0,57.0,100,30.07,4.0,Calm,Calm,-,N/A,,Overcast,0,2012-01-10 15:53:00
11:00 AM,57.2,57.2,100,30.09,2.0,Calm,Calm,-,N/A,,Overcast,0,2012-01-10 16:00:00
11:06 AM,57.2,57.2,100,30.09,1.5,Calm,Calm,-,N/A,,Overcast,0,2012-01-10 16:06:00
11:23 AM,57.2,57.2,100,30.08,2.5,Calm,Calm,-,N/A,,Overcast,0,2012-01-10 16:23:00
11:32 AM,57.2,57.2,100,30.09,4.0,West,3.5,-,N/A,,Overcast,260,2012-01-10 16:32:00
11:49 AM,57.2,57.2,100,30.08,5.0,Calm,Calm,-,N/A,,Overcast,0,2012-01-10 16:49:00
11:53 AM,59.0,57.9,96,30.06,5.0,Calm,Calm,-,N/A,,Overcast,0,2012-01-10 16:53:00
12:53 PM,59.0,55.9,90,30.03,5.0,WNW,3.5,-,N/A,,Overcast,300,2012-01-10 17:53:00
1:26 PM,59.0,55.4,88,30.03,9.0,Calm,Calm,-,N/A,,Overcast,0,2012-01-10 18:26:00
1:40 PM,59.0,57.2,94,30.02,8.0,Calm,Calm,-,N/A,,Overcast,0,2012-01-10 18:40:00
1:53 PM,59.0,57.0,93,30.00,7.0,Calm,Calm,-,N/A,,Overcast,0,2012-01-10 18:53:00
2:39 PM,60.8,57.2,88,30.01,8.0,Calm,Calm,-,N/A,,Overcast,0,2012-01-10 19:39:00
2:48 PM,60.8,57.2,88,30.00,8.0,Calm,Calm,-,N/A,,Overcast,0,2012-01-10 19:48:00
2:53 PM,60.1,57.0,90,29.98,8.0,Calm,Calm,-,N/A,,Overcast,0,2012-01-10 19:53:00
3:31 PM,60.8,57.2,88,29.99,6.0,East,4.6,-,0.00,,Overcast,100,2012-01-10 20:31:00
3:50 PM,60.8,57.2,88,29.99,5.0,East,3.5,-,0.00,,Overcast,100,2012-01-10 20:50:00
3:53 PM,60.1,57.9,93,29.98,5.0,ESE,3.5,-,0.00,,Overcast,110,2012-01-10 20:53:00
4:25 PM,59.0,57.2,94,29.98,4.0,ESE,4.6,-,N/A,,Overcast,110,2012-01-10 21:25:00
4:36 PM,59.0,57.2,94,29.98,4.0,East,5.8,-,N/A,,Mostly Cloudy,100,2012-01-10 21:36:00
4:48 PM,59.0,57.2,94,29.98,4.0,East,6.9,-,N/A,,Mostly Cloudy,100,2012-01-10 21:48:00
4:53 PM,59.0,57.0,93,29.96,4.0,ESE,5.8,-,N/A,,Mostly Cloudy,110,2012-01-10 21:53:00
5:25 PM,59.0,57.2,94,29.98,4.0,ESE,4.6,-,N/A,,Overcast,120,2012-01-10 22:25:00
5:35 PM,57.2,57.2,100,29.98,3.0,ESE,5.8,-,N/A,,Overcast,110,2012-01-10 22:35:00
5:53 PM,57.9,57.0,97,29.96,5.0,ESE,5.8,-,N/A,,Overcast,120,2012-01-10 22:53:00
6:07 PM,57.2,57.2,100,29.98,4.0,ESE,4.6,-,N/A,,Overcast,110,2012-01-10 23:07:00
6:15 PM,57.2,57.2,100,29.98,4.0,SSE,4.6,-,N/A,,Overcast,150,2012-01-10 23:15:00
6:40 PM,57.2,55.4,94,29.99,7.0,SE,4.6,-,0.00,,Overcast,130,2012-01-10 23:40:00
6:51 PM,57.2,55.4,94,29.98,8.0,ESE,4.6,-,0.00,,Overcast,120,2012-01-10 23:51:00
6:53 PM,57.0,55.0,93,29.96,8.0,ESE,5.8,-,0.00,,Overcast,120,2012-01-10 23:53:00
7:06 PM,57.2,55.4,94,29.97,8.0,ESE,4.6,-,N/A,,Overcast,110,2012-01-11 00:06:00
7:53 PM,57.0,54.0,89,29.96,10.0,SE,9.2,-,N/A,,Overcast,130,2012-01-11 00:53:00
8:01 PM,57.2,53.6,88,29.97,10.0,SSE,10.4,-,0.00,Rain,Light Rain,150,2012-01-11 01:01:00
8:21 PM,57.2,53.6,88,29.98,10.0,SSE,6.9,-,0.00,Rain,Light Rain,150,2012-01-11 01:21:00
8:53 PM,55.9,53.1,90,29.95,10.0,SE,3.5,-,0.00,,Overcast,140,2012-01-11 01:53:00
9:14 PM,55.4,53.6,94,29.96,10.0,SE,4.6,-,N/A,,Overcast,130,2012-01-11 02:14:00
9:53 PM,55.0,53.1,93,29.94,5.0,ESE,6.9,-,0.01,Rain,Light Rain,110,2012-01-11 02:53:00
10:06 PM,55.4,53.6,94,29.95,4.0,ESE,5.8,-,0.03,Rain,Rain,120,2012-01-11 03:06:00
10:28 PM,53.6,53.6,100,29.94,2.0,ESE,4.6,-,0.09,Rain,Rain,120,2012-01-11 03:28:00
10:34 PM,53.6,53.6,100,29.94,1.8,East,6.9,-,0.12,Rain,Heavy Rain,100,2012-01-11 03:34:00
10:59 PM,53.6,53.6,100,29.93,3.0,East,9.2,-,0.01,Rain,Light Rain,100,2012-01-11 03:59:00
11:53 PM,54.0,54.0,100,29.89,3.0,ESE,5.8,-,0.01,Rain,Light Rain,120,2012-01-11 04:53:00